Location: Kalonge
(0.3445°N, 29.7958°E)
Time: 07:54:28
(UTC+00:00)

Daily predictions for brighter satellites

Satellite Brightness Start Highest point End
(mag) Time Altitude Azimuth Time Altitude Azimuth Time Altitude Azimuth
Cosmos 2279 Rocket 4.2 16:26:09 10° N 16:32:23 84° W 16:38:37 10° S
ARIANE 5 R/B 3.6 16:31:20 10° W 16:35:11 81° S 17:01:05 10° E
Cosmos 2098 Rocket 4.4 16:32:00 10° SSE 16:37:17 41° E 16:43:32 10° NNE
GEOS 3 Rocket 4.2 16:33:04 10° NE 16:37:50 39° ESE 16:42:33 10° S
TIMED 4.5 16:36:05 10° N 16:40:24 85° ENE 16:44:46 10° SSE
Cosmos 1602 Rocket 3.6 16:38:02 10° S 16:42:21 85° W 16:46:40 10° N
Delta 128 3.7 16:38:15 10° WNW 16:42:42 81° SSW 16:47:20 10° ESE
CZ-2D R/B 3.2 16:39:36 10° SSE 16:43:29 79° E 16:47:20 10° N
YAOGAN 1 3.3 16:42:05 10° SE 16:45:53 30° ENE 16:49:41 10° NNE
Cosmos 1092 Rocket 4.2 16:41:02 10° S 16:47:20 81° W 16:53:33 10° N
Helios 1A Rocket 3.9 16:48:27 10° SE 16:51:50 25° ENE 16:55:14 10° NNE
Cosmos 773 Rocket 3.9 16:50:34 10° N 16:55:40 81° ENE 17:00:49 10° SSE
ASTRO E2 2.6 16:53:54 10° WSW 16:57:53 87° NW 17:00:57 16° NE
ARIANE 5 DEB (SYLDA) 2.8 16:55:49 10° W 16:58:06 70° N 17:01:40 14° E
Cosmos 1825 Rocket 3.7 16:55:55 10° SSE 17:00:05 47° E 17:04:14 10° NNE
Meteor 2-10 Rocket 3.7 17:00:06 10° N 17:05:16 75° W 17:10:19 10° S
USA 276 3.9 17:04:16 10° S 17:06:31 18° SE 17:07:10 17° ESE
Cosmos 372 Rocket 3.9 17:05:09 10° S 17:10:16 82° E 17:15:24 10° NNE
Skynet4D Del rocket 4.0 17:10:36 10° WSW 17:16:36 58° NNW 17:20:08 22° NE
Meteor 2-1 Rocket 4.1 17:13:04 10° N 17:18:34 84° E 17:24:06 10° S
Iridium 4 Rocket 3.2 17:14:52 10° N 17:19:54 70° E 17:24:30 10° S
Cosmos 1953 Rocket 3.6 17:16:46 10° S 17:21:08 56° E 17:24:04 19° NNE
SWARM C 4.4 17:18:06 10° S 17:21:24 65° E 17:23:08 25° NNE
SWARM A 4.0 17:18:12 10° S 17:21:31 73° E 17:23:36 21° N
GPS 2-15 Rocket1 3.2 17:17:21 10° WNW 17:21:59 71° SSW 17:25:14 19° ESE
ARGOS 3.2 17:18:27 10° SSE 17:23:41 55° ENE 17:28:53 10° N
ATLAS 3B R/B 3.5 17:16:54 10° NNW 17:24:07 61° WSW 17:31:28 10° SSE
Fermi 4.3 17:20:30 10° SW 17:24:23 44° SSE 17:25:40 32° ESE
OAO 3 Rocket 3.8 17:20:16 10° SW 17:24:59 44° SE 17:26:52 30° E
Cosmos 1812 Rocket 3.8 17:22:11 18° NNE 17:25:09 45° E 17:29:17 10° SSE
Cosmos 1346 Rocket 3.1 17:21:50 10° SSW 17:25:45 65° W 17:29:37 10° N
Aureole 3 3.7 17:25:04 10° NNW 17:27:55 46° W 17:31:04 10° S
Cosmos 1538 Rocket 4.0 17:24:13 10° NNW 17:29:23 86° WSW 17:34:36 10° S
Palapa 6 Rocket 3.9 17:26:27 10° NW 17:31:01 32° NNE 17:31:20 32° NNE
CZ-3A R/B 4.0 17:24:18 10° SW 17:31:37 47° SSE 17:38:50 24° E
CSL-04 Debris 4.0 17:28:20 10° SSE 17:33:44 71° ENE 17:39:06 10° N
Cosmos 2266 Rocket 4.2 17:27:43 10° SSE 17:33:49 47° E 17:36:46 28° NE
Cosmos 1655 Rocket 3.9 17:29:53 10° S 17:36:08 65° E 17:40:50 18° NNE
ARIANE 5 R/B 4.0 17:33:08 10° WSW 17:38:07 41° S 17:39:25 29° SE
Cosmos 1455 4.0 17:35:38 10° NNW 17:39:05 32° W 17:42:34 10° SSW
Cosmos 44 Rocket 3.3 17:39:05 10° SSW 17:43:43 72° WNW 17:45:34 36° N
CZ-4 R/B 3.7 17:40:13 10° SSW 17:43:46 27° WSW 17:47:17 10° NW
ARIANE 5 R/B 2.5 17:24:55 10° W 17:44:34 59° NNW 17:45:58 43° NE
ARIANE 44LP R/B 3.7 17:43:26 10° W 17:45:31 28° WNW 17:45:31 28° WNW
In-Cosmos 22 Rocket 4.2 17:43:50 10° S 17:49:37 85° E 17:52:41 30° N
SL-08 RB Rocket 3.6 17:46:22 10° SSE 17:51:01 85° ENE 17:52:51 36° N
NATO 3D Rocket 3.7 17:47:26 10° SW 17:52:09 55° SSE 17:52:58 49° ESE
Delta 2 Rocket 3.7 17:50:43 10° WSW 17:53:34 51° W 17:53:34 51° W
Aureole 3 Rocket 3.2 17:55:07 47° NNW 17:56:22 79° W 18:01:55 10° S
Cosmos 2150 Rocket 4.2 17:53:48 10° SSW 17:58:55 64° WNW 18:00:43 39° NNW
H-2A R/B 3.9 17:59:18 10° SSW 18:03:26 27° WSW 18:07:34 10° NW
Cosmos 1553 Rocket 3.9 18:05:53 66° E 18:06:00 66° E 18:12:10 10° SSE
H-2A R/B (2) 4.1 18:06:41 10° SW 18:08:06 12° SSW 18:09:49 10° SSE
Cosmos 2369 Rocket 4.4 18:05:10 10° SSE 18:05:49 12° SSE 18:05:49 12° SSE
H-2A R/B 4.3 17:35:53 10° SW 18:10:39 33° S 18:14:17 24° SE
DASH 3.9 17:38:02 10° WNW 18:10:53 68° NNE 18:11:55 60° ENE
Intercosmos 25 Rocket 4.1 18:05:24 10° S 18:11:38 73° S 18:11:38 73° S
Ariane H10+ 3.1 18:08:36 10° WNW 18:13:37 31° NW 18:13:37 31° NW
ATLAS 3B CENTAUR R/B 4.0 18:20:22 10° WNW 18:20:41 11° WNW 18:20:41 11° WNW
Cosmos 1943 Rocket 3.2 18:18:27 10° S 18:21:35 34° S 18:21:35 34° S
ATLAS 2AS CENTAUR RB 4.5 18:21:11 10° WSW 18:27:29 56° S 19:39:33 10° E
ARIANE 5 R/B 3.4 18:46:34 10° WSW 19:17:10 - E 18:49:20 43° SSW
CZ-3A R/B 4.1 19:23:49 10° WSW 19:31:56 65° W 19:31:56 65° W
